Other Public Products
Issued by NWS Grand Forks, ND

Home | Current Version | Previous Version | Graphics & Text | Print | Product List | Glossary On
Versions: 1 2 3 4 5 6 7 8 9 10 11 12 13 14 15 16 17 18 19 20 21 22 23 24 25 26 27 28 29 30 31 32 33 34 35 36 37 38 39 40 41 42 43 44 45 46 47 48 49 50
000
FPUS83 KFGF 271931
OPUFGF
PRAIRIE TO PINES WEATHER ROUNDUP
NATIONAL WEATHER SERVICE EASTERN NORTH DAKOTA/GRAND FORKS ND
200 PM CDT WED JUL 27 2016

 **SATELLITE DATA USED TO AUGMENT SKY COVER AT AUTOMATED STATIONS**
 *****  WEATHER ACROSS EASTERN NORTH DAKOTA  *****

CITY           SKY/WX    TMP DP  RH WIND       PRES   REMARKS
GRAND FORKS    MOSUNNY   76  59  55 N13       30.06F
GRAND FORKS AF MOSUNNY   75  58  54 NE16      30.08S
GRAND CITY NWS   N/A     75 N/A N/A N16         N/A
BUXTON         NOT AVBL
DEVILS LAKE    MOSUNNY   72  57  59 N9G18     30.14F
FARGO          SUNNY     79  59  50 NW18      30.04S
WAHPETON ARPT  CLEAR     77  54  44 N16       30.03S
$$

 *****  WEATHER ACROSS CENTRAL AND WESTERN NORTH DAKOTA  *****

CITY           SKY/WX    TMP DP  RH WIND       PRES   REMARKS
JAMESTOWN      SUNNY     76  60  57 N12       30.10F
BISMARCK       PTSUNNY   75  63  66 NE10      30.12S
MINOT          CLOUDY    79  58  48 NE8       30.14R
MINOT AFB      PTSUNNY   75  58  56 VRB3      30.13S
GARRISON         N/A     76  63  64 SE9       30.14R
WILLISTON      CLOUDY    74  59  59 W6        30.14S
DICKINSON      CLOUDY    70  61  73 E3        30.14F
HETTINGER      CLOUDY    67  57  70 W6        30.18R
$$

 *****  OTHER OBSERVATIONS NORTHEAST NORTH DAKOTA  *****

CITY           SKY/WX    TMP DP  RH WIND       PRES   REMARKS
WALHALLA       FAIR      72  68  88 N14       30.13S
LANGDON        MOCLDY    73  57  56 N10       30.15F
CAVALIER       MOCLDY    73  57  56 N12G18    30.11S
GRAFTON        FAIR      75  59  57 N15G21    30.10F
CANDO          FAIR      72  57  60 N12G20    30.17F
FORT TOTTEN      N/A     74  59  59 N5        29.95S
ROLLA            N/A     68  55  64 N13       30.17F
RUGBY          NOT AVBL
 ***** THE ABOVE OBSERVATIONS ARE NON NWS ARE NOT QUALITY
        CONTROLLED AND MAY MIS-REPORT RAIN FOR SNOW...
$$

 *****  OTHER OBSERVATIONS SOUTHEAST NORTH DAKOTA *****

CITY           SKY/WX    TMP DP  RH WIND       PRES   REMARKS
COOPERSTOWN    NOT AVBL
VALLEY CITY    FAIR      75  59  57 N14G21    30.11F
OAKES            N/A    N/A N/A N/A MISG        N/A
GWINNER        FAIR      79  61  53 N17       30.07F
SHEYENNE NWR     N/A     78  56  46 N10       29.95S
BUFFALO        NOT AVBL
WYNDMERE       NOT AVBL
 ***** THE ABOVE OBSERVATIONS ARE NON NWS ARE NOT QUALITY
       CONTROLLED AND MAY MIS-REPORT RAIN FOR SNOW...
$$

  *****  WEATHER ACROSS NORTHERN MINNESOTA  *****

CITY           SKY/WX    TMP DP  RH WIND       PRES   REMARKS
FLAG ISLAND    MOSUNNY   72  55  56 N13       30.08R
WARROAD        SUNNY     75  63  64 NE12      30.08S
ROSEAU         SUNNY     77  64  65 NE10G16   30.07S
HALLOCK        MOSUNNY   75  59  57 N15       30.08S
THF RVR FALLS  MOSUNNY   75  58  55 N9        30.06S
HALSTAD        NOT AVBL
FOSSTON        SUNNY     75  57  53 NW7       30.04F
BAUDETTE       CLOUDY    75  58  55 NE8       30.05S
WASKISH        MOSUNNY   79  61  53 NE6       30.03S
CROOKSTON      MOSUNNY   75  61  60 N10G16    30.05F
$$
  *****  WEATHER ACROSS CENTRAL AND WEST MINNESOTA  *****

CITY           SKY/WX    TMP DP  RH WIND       PRES   REMARKS
BEMIDJI        PTSUNNY   73  63  68 E9        30.04S
PARK RAPIDS    CLOUDY    74  62  66 N5        30.02F
WADENA         CLOUDY    72  64  78 N6        30.02S
DETROIT LAKES  SUNNY     75  59  57 N12       30.05S
MOORHEAD       SUNNY     75  61  60 N15       30.05R
FERGUS FALLS   SUNNY     77  63  61 N10       30.02F
ELBOW LAKE     FAIR      75  65  72 N10       30.01F
MORRIS MN      MOSUNNY   81  66  61 N13G18    29.99F
STAPLES        CLOUDY    70  61  73 N5        30.01F
WHEATON        MOSUNNY   79  66  65 N10G17    30.03F
$$
  *****  WEATHER ELSEWHERE ACROSS MINNESOTA  *****

CITY           SKY/WX    TMP DP  RH WIND       PRES   REMARKS
DULUTH         LGT RAIN  65  56  72 NE12G21   30.03F
INTRNTL FALLS  MOSUNNY   75  56  51 NE8       30.05S
ELY            CLOUDY    70  61  73 N3        30.05S
CLOQUET        LGT RAIN  64  57  77 SE5       30.04S
BRAINERD       CLOUDY    69  66  90 N6        30.00F
HIBBING        LGT RAIN  64  62  93 E6        30.05S
ALEXANDRIA     MOSUNNY   76  62  62 N8        30.02F
SAINT CLOUD    CLOUDY    73  69  87 N8        29.96S
MINNEAPOLIS    TSTM      71  62  73 VRB5      29.94F
$$

  *****  WEATHER ACROSS SOUTH DAKOTA  *****

CITY           SKY/WX    TMP DP  RH WIND       PRES   REMARKS
SIOUX FALLS    PTSUNNY   82  68  62 N10       30.00S
BROOKINGS      PTSUNNY   77  64  64 N13       30.02F
WATERTOWN      MOSUNNY   80  63  55 N12       30.03F
HURON          SUNNY     81  65  58 NE15      30.01F
SISSETON         N/A     79  64  60 N16G22    30.03S
ABERDEEN       SUNNY     78  63  59 NE10      30.05F
MITCHELL       PTSUNNY   82  66  58 N12G20    30.02S
PIERRE         MOSUNNY   86  61  42 NE13      30.03S
MOBRIDGE       PTSUNNY   83  61  47 VRB6G17   30.06F
RAPID CITY     PTSUNNY   80  62  54 NE16      30.14R
$$

  *****  SOME WEATHER IN NEARBY STATES *****

CITY           SKY/WX    TMP DP  RH WIND       PRES   REMARKS
GLASGOW MT     CLOUDY    73  61  65 VRB5      30.14S
GREAT FALLS MT SUNNY     80  51  36 VRB6      30.18F
CHEYENNE WY    SUNNY     79  50  36 CALM      30.25F
SCOTTSBLUFF NE SUNNY     84  55  36 CALM      30.13F
OMAHA NE       MOSUNNY   88  67  49 N10       29.97F HX  91
DES MOINES IA  CLOUDY    85  68  56 VRB6      29.97F
DAVENPORT IA   MOSUNNY   84  68  58 S6        29.99F
CHICAGO IL     MOSUNNY   87  63  44 VRB5      29.98F
EAU CLAIRE WI  CLOUDY    81  70  69 SE7       29.94F
LA CROSSE WI   CLOUDY    83  67  58 SW9       29.97S
$$

  *****  SOME NATIONAL WEATHER *****

CITY           SKY/WX    TMP DP  RH WIND       PRES   REMARKS
LA GUARDIA NY  MOSUNNY   93  59  31 W10       29.91S HX  92
RALEIGH NC     CLOUDY    88  78  72 CALM      29.96F HX 101
ATLANTA GA     PTSUNNY   89  72  56 S9        30.06F HX  96
NEW ORLEANS LA PTSUNNY   84  73  69 W13       30.06S HX  90
OKLAHOMA CITY  MOSUNNY   90  72  55 CALM      29.96F HX  97
ALBUQUERQUE NM MOSUNNY   86  56  35 CALM      30.21F
SALT LAKE CITY SUNNY     97  27   8 NW5       30.13S HX  91
LOS ANGELES CA MOSUNNY   78  65  63 W10       29.93F
BOISE ID       SUNNY     91  47  21 W8        30.04F
SEATTLE WA     MOSUNNY   72  60  66 W9        30.14S
$$

*** WEATHER ACROSS MANITOBA...SASKATCHEWAN AND ONTARIO ***
                ***ONTARIO***

CITY           SKY/WX    TMP DP  RH WIND       PRES   REMARKS
GERALDTON      MOSUNNY   72  50  46 N10G18    30.03S
THUNDER BAY    PTSUNNY   75  59  57 E6        30.02F
SIOUX LOOKOUT  PTSUNNY   68  54  60 N6        30.11
TORONTO        MOSUNNY   91  61  35 W15G26    29.89F HX  91
BIG TROUT LK   NOT AVBL
PICKLE LAKE    PTSUNNY   68  48  49 VRB5      30.09F
DRYDEN         CLOUDY    68  54  60 NE6       30.11S
KENORA         PTSUNNY   70  54  56 NE13G20   30.11F
$$
                *** MANITOBA***

CITY           SKY/WX    TMP DP  RH WIND       PRES   REMARKS
BRANDON        CLOUDY    70  52  52 NE7       30.17F
DAUPHIN        MOSUNNY   68  55  64 VRB7      30.18S
ISLAND LAKE    MOSUNNY   66  48  52 N5        30.16F
PILOT MOUND      N/A     70  54  56 N8          N/A
THE PAS        MOSUNNY   75  48  38 SE8       30.14F
THOMPSON       PTSUNNY   70  48  46 VRB5      30.13F
WINNIPEG       PTSUNNY   70  55  60 N15       30.14R
LYNN LAKE      LGT RAIN  64  57  77 MISG      30.08F
CHURCHILL      MOSUNNY   64  46  52 NE9       30.10F
GILLAM         MOSUNNY   64  48  55 NW6       30.14F
$$
                ***SASKATCHEWAN***

CITY           SKY/WX    TMP DP  RH WIND       PRES   REMARKS
ESTEVAN        CLOUDY    72  59  64 E8        30.16S
KINDERSLEY     MOSUNNY   75  61  60 S7        30.17F
LLOYDMINSTER   MOSUNNY   77  61  57 S10       30.14F
PRINCE ALBERT  PTSUNNY   79  55  44 SW7       30.15F
REGINA         PTSUNNY   75  57  53 S5        30.16S
YORKTON        MOSUNNY   72  54  53 VRB8      30.18F   C1F1C2F2C3F3C4F4C5F5C6F6C7F7C8F8C9F9CaFaCbFbCcFcCdFdCe!


USA.gov is the U.S. government's official web portal to all federal, state and local government web resources and services.